{"data":{"norad_id":57998,"epoch":"2026-05-24T23:14:57.444288Z","epoch_age_seconds":77496,"freshness":"FRESH","line1":"1 57998U 23153H   26144.96872042  .00000397  00000+0  23961-4 0  9990","line2":"2 57998  43.0073 356.1548 0001913 267.8854  92.1778 15.27577670146566","mean_motion":15.2757767,"eccentricity":0.0001913,"inclination_deg":43.0073,"raan_deg":356.1548,"arg_perigee_deg":267.8854,"mean_anomaly_deg":92.1778,"bstar":2.3961e-5,"rev_number":14656,"period_min":94.266892497846,"perigee_km":481.74352667189,"apogee_km":484.36861914158,"semimajor_km":6861.1930729067,"source":"CELESTRAK","updated_at":"2026-05-25T13:38:18.490679Z"}}